Fargo, ND

2:34 PM CST on January 21, 2018 (GMT -0600)
Hector International

Weather History for KFAR - May, 2014

Change the Weather History Date:

Friday, May 30, 2014

  Actual Average Record
Temperature  
Mean Temperature 79 °F 62 °F  
Max Temperature 93 °F 73 °F 104 °F (1934)
Min Temperature 65 °F 50 °F 29 °F (1947)
Degree Days  
Heating Degree Days 0 5  
Month to date heating degree days 323 267  
Since 1 July heating degree days 9649 8723  
Cooling Degree Days 14 2  
Month to date cooling degree days 76 28  
Year to date cooling degree days 76 31  
Growing Degree Days 30 (Base 50)    
Moisture  
Dew Point 58 °F    
Average Humidity 63    
Maximum Humidity 93    
Minimum Humidity 32    
Precipitation  
Precipitation 0.20 in 0.10 in 2.18 in (2004)
Month to date precipitation 1.85 2.70  
Year to date precipitation 6.88 6.70  
Snow  
Snow 0.00 in 0.00 in 0.00 in ()
Month to date snowfall 0.0 0.0  
Since 1 July snowfall 34.9 50.4  
Snow Depth 0.00 in    
Sea Level Pressure  
Sea Level Pressure 29.98 in    
Wind  
Wind Speed 13 mph (SE)    
Max Wind Speed 29 mph    
Max Gust Speed 33 mph    
Visibility 10 miles    
Events Rain    
T = Trace of Precipitation, MM = Missing Value Source: NWS Daily Summary

Daily Weather History Graph

Daily Weather History Graph

Search for Another Location

Airport or City:

Trip Planner

Search our weather history database for the weather conditions in past years. The results will help you decide how hot, cold, wet, or windy it might be!

Date:

Astronomy

May. 30, 2014 Rise Set
Actual Time 5:37 AM CDT 9:12 PM CDT
Civil Twilight 4:59 AM CDT 9:50 PM CDT
Nautical Twilight 4:08 AM CDT 10:41 PM CDT
Astronomical Twilight 3:00 AM CDT 11:51 PM CDT
Moon 7:26 AM CDT (5/30) 10:45 PM CDT (5/30)
Length of Visible Light 16h 51m
Length of Day
15h 34m
Waxing Crescent, 4% of the Moon is Illuminated
May 30
Waxing Crescent
Jun 5
First Quarter
Jun 12
Full
Jun 19
Last Quarter
Jun 27
New

Hourly Weather History & Observations

Time (CDT) Temp. Heat Index Dew Point Humidity Pressure Visibility Wind Dir Wind Speed Gust Speed Precip Events Conditions
12:53 AM 73.0 °F - 46.9 °F 39% 29.96 in 10.0 mi SSE 13.8 mph - N/A   Clear
1:53 AM 72.0 °F - 46.9 °F 41% 29.97 in 10.0 mi SSE 11.5 mph - N/A   Clear
2:53 AM 71.1 °F - 46.9 °F 42% 29.99 in 10.0 mi SSE 12.7 mph - N/A   Clear
3:53 AM 70.0 °F - 46.9 °F 44% 30.01 in 10.0 mi SSE 11.5 mph - N/A   Clear
4:53 AM 70.0 °F - 46.9 °F 44% 30.01 in 10.0 mi SSE 12.7 mph - N/A   Partly Cloudy
5:53 AM 69.1 °F - 46.9 °F 45% 30.01 in 10.0 mi SSE 12.7 mph - N/A   Scattered Clouds
6:53 AM 69.1 °F - 48.9 °F 49% 30.01 in 10.0 mi South 11.5 mph - N/A   Clear
7:53 AM 72.0 °F - 52.0 °F 49% 29.99 in 10.0 mi SSE 13.8 mph - N/A   Clear
8:53 AM 75.0 °F - 54.0 °F 48% 30.01 in 10.0 mi South 11.5 mph - N/A   Clear
9:53 AM 79.0 °F - 55.9 °F 45% 30.01 in 10.0 mi South 10.4 mph - N/A   Clear
10:53 AM 82.9 °F 82.8 °F 59.0 °F 44% 29.99 in 10.0 mi South 11.5 mph - N/A   Clear
11:53 AM 86.0 °F 86.3 °F 62.1 °F 44% 29.99 in 10.0 mi South 12.7 mph - N/A   Clear
12:53 PM 89.6 °F 90.1 °F 62.6 °F 40% 29.99 in 10.0 mi South 11.5 mph - N/A   Partly Cloudy
1:53 PM 90.0 °F 89.7 °F 60.1 °F 37% 29.96 in 10.0 mi South 12.7 mph 21.9 mph N/A   Partly Cloudy
2:53 PM 90.0 °F 89.7 °F 60.1 °F 37% 29.93 in 10.0 mi South 15.0 mph - N/A   Clear
3:53 PM 93.2 °F 92.6 °F 59.0 °F 32% 29.94 in 10.0 mi South 16.1 mph - N/A   Clear
5:04 PM 73.9 °F - 66.9 °F 79% 29.94 in 10.0 mi NNW 23.0 mph 31.1 mph 0.01 in Rain Light Rain
5:33 PM 73.0 °F - 66.0 °F 79% 29.92 in 1.2 mi North - - 0.01 in Rain Heavy Rain
5:49 PM 73.4 °F - 66.2 °F 78% 29.93 in 10.0 mi NNE 11.5 mph 26.5 mph 0.19 in Rain Light Rain
5:53 PM 73.0 °F - 66.9 °F 81% 29.93 in 10.0 mi NNE 17.3 mph 25.3 mph 0.19 in   Mostly Cloudy
6:53 PM 72.0 °F - 64.9 °F 78% 29.94 in 10.0 mi NNE 17.3 mph - N/A   Scattered Clouds
7:50 PM 69.8 °F - 66.2 °F 88% 29.97 in 9.0 mi North 20.7 mph - 0.01 in   Mostly Cloudy
7:53 PM 70.0 °F - 66.0 °F 87% 29.98 in 9.0 mi North 23.0 mph - 0.01 in   Mostly Cloudy
8:53 PM 69.1 °F - 64.0 °F 84% 29.99 in 10.0 mi North 16.1 mph - N/A   Mostly Cloudy
9:53 PM 68.0 °F - 64.0 °F 87% 30.00 in 10.0 mi NNE 8.1 mph - N/A   Clear
10:53 PM 66.9 °F - 64.0 °F 90% 29.99 in 10.0 mi NE 5.8 mph - N/A   Clear
11:53 PM 66.9 °F - 64.0 °F 90% 29.96 in 8.0 mi ENE 9.2 mph - N/A   Clear